Miscellaneous Local Product
Issued by NWS Hastings, NE

Home | Current Version | Previous Version | Graphics & Text | Print | Product List | Glossary On
Versions: 1 2 3 4 5 6 7 8 9 10 11 12 13 14 15 16 17 18 19 20 21 22 23 24 25 26 27 28 29 30 31 32 33 34 35 36 37 38 39 40 41 42 43 44 45 46 47 48 49 50
545
AXUS43 KGID 171202
MISGRI

GID CWA HOURLY WEATHER ROUNDUP
NATIONAL WEATHER SERVICE HASTINGS NE
700 AM CDT THU AUG 17 2017

NOTE: "FAIR" INDICATES FEW OR NO CLOUDS BELOW 12,000 FEET WITH NO
SIGNIFICANT WEATHER AND/OR OBSTRUCTIONS TO VISIBILITY.

...SOUTH CENTRAL NEBRASKA...

CITY           SKY/WX    TMP DP  RH WIND       PRES   REMARKS
GRAND ISLAND   CLEAR     56  55  97 W10       30.00R
HASTINGS       CLEAR     56  53  90 W8        30.02R
KEARNEY        CLEAR     56  53  90 SW9       30.04R
ORD            CLEAR     51  49  92 CALM      29.99R
YORK           CLEAR     57  57 100 W6        29.98R
AURORA         CLEAR     56  56  99 W7        29.99R
LEXINGTON      CLEAR     53  51  93 CALM      30.05R
HOLDREGE       CLEAR     55  53  90 W3        30.05R
HEBRON         CLEAR     59  58  95 W8        29.99R

...NEBRASKA PANHANDLE...

CITY           SKY/WX    TMP DP  RH WIND       PRES   REMARKS
CHADRON        CLEAR     49  47  93 CALM      29.99S
ALLIANCE       CLEAR     48  45  89 S3        30.05S
SCOTTSBLUFF    CLEAR     53  49  86 E7        30.06S
SIDNEY         CLEAR     53  51  93 SW10      30.11R

...WESTERN AND NORTH CENTRAL NEBRASKA...

CITY           SKY/WX    TMP DP  RH WIND       PRES   REMARKS
VALENTINE      CLEAR     51  47  86 W6        30.00R
AINSWORTH      CLEAR     53  50  90 W8        30.01R
ONEILL         CLEAR     54  52  94 W8        29.97R
BROKEN BOW     CLEAR     54  50  86 CALM      30.02R
IMPERIAL       CLEAR     52  50  93 W6        30.09R
NORTH PLATTE   CLEAR     51  51 100 CALM      30.06R
MCCOOK         CLEAR     54  54 100 SW5       30.07R

...EASTERN NEBRASKA...

CITY           SKY/WX    TMP DP  RH WIND       PRES   REMARKS
NORFOLK        CLEAR     59  55  87 W13       29.93R
SO SIOUX CITY  CLOUDY    64  60  87 NW16G24   29.85R
TEKAMAH        MOCLDY    63  59  87 W8        29.88R
COLUMBUS       CLEAR     59  56  89 W7        29.95R
ALBION         CLEAR     56  54  92 NW6       29.96R
OMAHA EPPLEY   PTCLDY    65  59  81 W12       29.89R
OFFUTT AFB     CLEAR     63  59  88 W8        29.89R
MILLARD        CLEAR     64  60  87 W7        29.90R
LINCOLN        CLEAR     63  58  83 W8        29.95R
NEBRASKA CITY  CLEAR     62  62 100 W10       29.91R
BEATRICE       CLEAR     60  59  96 W5        29.95S
FALLS CITY     CLEAR     63  61  93 W10       29.90R

...NORTHERN KANSAS...

CITY           SKY/WX    TMP DP  RH WIND       PRES   REMARKS
GOODLAND       CLEAR     58  55  90 SW10      30.13R
HILL CITY      CLEAR     58  57  97 W6        30.06S
NORTON         SUNNY     54  50  87 W7        30.06R
PHILLIPSBURG   CLEAR     55  55 100 W7        30.04S
SMITH CENTER   CLEAR     52  52 100 CALM      30.04R FOG
HAYS           CLEAR     57  56  96 W7        30.05R
RUSSELL        CLEAR     59  58  96 W6        30.02S
CONCORDIA      CLEAR     59  59 100 NW8       29.99R
SALINA         CLEAR     64  60  87 SW3       30.00R
TOPEKA         CLEAR     66  65  96 W5        29.93R



USA.gov is the U.S. government's official web portal to all federal, state and local government web resources and services.